STARLINK-1980 (47578 NORAD) Tracking and Keplerian Element Data

This shows tracking and keplerian element data for the satellite.

Feedback or suggestion? Click here.




ElementValue
Catalog47578
NameSTARLINK-1980
Epoch Orbit177
Epoch Day101.91668981
Epoch Year2021
RAAN157.5485
Inclination53.0522
Eccentricity0.0003993
Argument of Perigee15.9923
Mean Anonmoly228.866
Mean Motion15.62799593
Decay Rate0.00034546
L11 47578U 21009AG 21101.91668981 .00034546 00000-0 38074-3 0 9993
L22 47578 53.0522 157.5485 0003993 15.9923 228.8660 15.62799593 1771

Live tracking and technical data element details for STARLINK-1980 (NORAD 47578). STARLINK-1980 can be tracked NOW for your location showing map with azimuth and elevation plus other details from your city location.

Track the satellite on the map from your city or location and see movement details for azimuth, elevation, latitude, longitude, range, height, and movement on the map or in text.







IsCatalogInMostPopularTable: catalog: 47578, numindb: 18
Update: records affected: 1



GetName: 47578 STARLINK-1980

Hit Count: updated at: Tue, 13 Apr 2021 05:05:52 GMT